North Vernon, Indiana, United States (47265)
Lat: 39.01N, Lon: 85.62W
Wx Zone: INZ072
Local Info
Past Weather Observations for Saturday, April 12, 2014

NOTE: This archive is for the closest National Weather Service station to North Vernon. Information may differ from the station used for current weather conditions.

Time Weather Temperature Dewpoint Humidity Pressure Winds Precip Visibility
23:53
Clear
66°F / 19°C 52°F / 11°C 60% 29.83 in
(1010 mb)
S 11.5 mph
(S 19 kph)
- 10SM
22:53
Clear
70°F / 21°C 52°F / 11°C 53% 29.83 in
(1010 mb)
S 16.1 mph
(S 26 kph)
- 10SM
21:53
Clear
70°F / 21°C 52°F / 11°C 53% 29.86 in
(1011 mb)
S 16.1 mph
(S 26 kph)
- 10SM
20:53
Clear
72°F / 22°C 52°F / 11°C 50% 29.86 in
(1011 mb)
S 15 mph
(S 24 kph)
- 10SM
19:53
Clear
72°F / 22°C 52°F / 11°C 50% 29.86 in
(1011 mb)
S 16.1 mph
(S 26 kph)
- 10SM
18:53
Clear
73°F / 23°C 52°F / 11°C 47% 29.86 in
(1011 mb)
S 16.1 mph
(S 26 kph)
- 10SM
17:53
Clear
75°F / 24°C 52°F / 11°C 44% 29.89 in
(1012 mb)
S 17.3 mph
(S 28 kph)
- 10SM
16:53
Clear
79°F / 26°C 52°F / 11°C 39% 29.89 in
(1012 mb)
S 24.2 mph
(S 39 kph)
- 10SM
15:53
Clear
79°F / 26°C 54°F / 12°C 42% 29.92 in
(1013 mb)
S 27.6 mph
(S 44 kph)
- 10SM
14:53
Partly Cloudy
79°F / 26°C 54°F / 12°C 42% 29.92 in
(1013 mb)
S 19.6 mph
(S 32 kph)
- 10SM
13:53
Clear
79°F / 26°C 54°F / 12°C 42% 29.95 in
(1014 mb)
SSE 23 mph
(SSE 37 kph)
- 10SM
12:53
Clear
75°F / 24°C 54°F / 12°C 47% 30.01 in
(1016 mb)
S 21.9 mph
(S 35 kph)
- 10SM
11:53
Clear
73°F / 23°C 54°F / 12°C 50% 30.04 in
(1017 mb)
S 21.9 mph
(S 35 kph)
- 10SM
10:53
Clear
70°F / 21°C 54°F / 12°C 57% 30.06 in
(1018 mb)
S 17.3 mph
(S 28 kph)
- 10SM
09:53
Overcast
66°F / 19°C 52°F / 11°C 60% 30.09 in
(1019 mb)
S 13.8 mph
(S 22 kph)
- 10SM
08:53
Partly Cloudy
61°F / 16°C 46°F / 8°C 59% 30.09 in
(1019 mb)
SSE 12.7 mph
(SSE 20 kph)
- 10SM
07:53
Overcast
55°F / 13°C 45°F / 7°C 67% 30.12 in
(1020 mb)
SE 9.2 mph
(SE 15 kph)
- 10SM
06:53
Overcast
52°F / 11°C 37°F / 3°C 58% 30.12 in
(1020 mb)
SE 6.9 mph
(SE 11 kph)
- 10SM
05:53
Clear
45°F / 7°C 36°F / 2°C 71% 30.12 in
(1020 mb)
SE 5.8 mph
(SE 9 kph)
- 10SM
04:53
Clear
43°F / 6°C 36°F / 2°C 76% 30.12 in
(1020 mb)
SE 4.6 mph
(SE 7 kph)
- 10SM
03:53
Clear
45°F / 7°C 36°F / 2°C 71% 30.09 in
(1019 mb)
SE 3.5 mph
(SE 6 kph)
- 10SM
02:53
Clear
46°F / 8°C 37°F / 3°C 71% 30.09 in
(1019 mb)
SSE 6.9 mph
(SSE 11 kph)
- 10SM
01:53
Clear
45°F / 7°C 39°F / 4°C 81% 30.09 in
(1019 mb)
Calm - 10SM
00:53
Clear
46°F / 8°C 39°F / 4°C 76% 30.09 in
(1019 mb)
SSE 3.5 mph
(SSE 6 kph)
- 10SM
Time Weather Temperature Dewpoint Humidity Pressure Winds Precip Visibility


Weather for websites

WeatherForYou.com, LLC is not responsible for any damages or problems caused by this service. Current weather conditions are obtained from the closest station including government and personal stations which may have varying degrees of accuracy. Weather forecasts are derived from the NOAA NDFD. Like all things, this site belongs to Jesus Christ... He just trusts me to maintain it. If you have any questions or comments email webmaster@weatherforyou.com

Copyright © 2014, WeatherForYou.com LLC. All rights reserved.